| time (UTC) | temp C | wind direction | speed KPH | gust KPH | rain 1hr cm | rain 24hr cm | rain mn cm | humidity % | barometer mb |
| 20260502205003 | 16 | 149 | 8.0 | 19.3 | 0.00 | 0.00 | 0.00 | 74 | 1014.4 |
| 20260502204003 | 15 | 24 | 1.6 | 6.4 | 0.00 | 0.00 | 0.00 | 75 | 1014.0 |
| 20260502203003 | 16 | 16 | 1.6 | 4.8 | 0.00 | 0.00 | 0.00 | 73 | 1013.9 |
| 20260502202003 | 16 | 14 | 3.2 | 4.8 | 0.00 | 0.00 | 0.00 | 73 | 1013.6 |
| 20260502201216 | 16 | 13 | 1.6 | 4.8 | 0.00 | 0.00 | 0.00 | 73 | 1013.8 |
| 20260502200003 | 16 | 14 | 1.6 | 4.8 | 0.00 | 0.00 | 0.00 | 73 | 1014.0 |
| 20260502195003 | 17 | 13 | 1.6 | 4.8 | 0.00 | 0.00 | 0.00 | 73 | 1014.0 |
| 20260502194003 | 17 | 12 | 1.6 | 4.8 | 0.00 | 0.00 | 0.00 | 73 | 1014.0 |
| 20260502193003 | 17 | 12 | 0.0 | 3.2 | 0.00 | 0.00 | 0.00 | 73 | 1014.0 |
| 20260502192003 | 17 | 12 | 1.6 | 4.8 | 0.00 | 0.00 | 0.00 | 72 | 1013.9 |
| 20260502191216 | 17 | 12 | 1.6 | 4.8 | 0.00 | 0.00 | 0.00 | 73 | 1013.8 |
| 20260502190004 | 17 | 11 | 1.6 | 4.8 | 0.00 | 0.00 | 0.00 | 72 | 1013.7 |
| 20260502185215 | 18 | 11 | 3.2 | 4.8 | 0.00 | 0.00 | 0.00 | 71 | 1013.8 |
| 20260502184003 | 18 | 12 | 3.2 | 8.0 | 0.00 | 0.00 | 0.00 | 71 | 1013.8 |
| 20260502183219 | 18 | 14 | 3.2 | 8.0 | 0.00 | 0.00 | 0.00 | 71 | 1013.8 |
| 20260502182003 | 18 | 6 | 3.2 | 8.0 | 0.00 | 0.00 | 0.00 | 71 | 1013.8 |
| 20260502181003 | 19 | 341 | 4.8 | 12.9 | 0.00 | 0.00 | 0.00 | 70 | 1013.8 |
| 20260502164003 | 23 | 269 | 6.4 | 11.3 | 0.00 | 0.00 | 0.00 | 61 | 1014.2 |
| 20260502163003 | 22 | 257 | 8.0 | 14.5 | 0.00 | 0.00 | 0.00 | 63 | 1014.3 |
| 20260502162003 | 23 | 245 | 6.4 | 11.3 | 0.00 | 0.00 | 0.00 | 58 | 1014.4 |
| 20260502161003 | 23 | 214 | 6.4 | 12.9 | 0.00 | 0.00 | 0.00 | 58 | 1014.5 |
| 20260502152003 | 23 | 220 | 8.0 | 16.1 | 0.00 | 0.00 | 0.00 | 56 | 1014.9 |
| 20260502151218 | 23 | 241 | 9.7 | 16.1 | 0.00 | 0.00 | 0.00 | 57 | 1015.1 |
| 20260502123003 | 23 | 231 | 11.3 | 24.1 | 0.00 | 0.00 | 0.00 | 53 | 1016.6 |
| 20260502122003 | 23 | 228 | 9.7 | 22.5 | 0.00 | 0.00 | 0.00 | 56 | 1016.6 |
| 20260502121003 | 23 | 209 | 12.9 | 22.5 | 0.00 | 0.00 | 0.00 | 54 | 1016.6 |
| 20260502115003 | 22 | 231 | 14.5 | 24.1 | 0.00 | 0.00 | 0.00 | 57 | 1016.7 |
| 20260502114003 | 23 | 254 | 12.9 | 22.5 | 0.00 | 0.00 | 0.00 | 56 | 1016.8 |
| 20260502113003 | 23 | 238 | 11.3 | 24.1 | 0.00 | 0.00 | 0.00 | 51 | 1016.9 |
| 20260502112219 | 23 | 248 | 11.3 | 20.9 | 0.00 | 0.00 | 0.00 | 59 | 1016.7 |
| 20260502111003 | 23 | 245 | 14.5 | 22.5 | 0.00 | 0.00 | 0.00 | 55 | 1016.9 |
| 20260502110003 | 23 | 232 | 12.9 | 25.7 | 0.00 | 0.00 | 0.00 | 54 | 1017.0 |
| 20260502105003 | 22 | 203 | 11.3 | 20.9 | 0.00 | 0.00 | 0.00 | 53 | 1017.0 |
| 20260502104003 | 22 | 210 | 9.7 | 22.5 | 0.00 | 0.00 | 0.00 | 47 | 1017.0 |
| 20260502103003 | 22 | 194 | 9.7 | 17.7 | 0.00 | 0.00 | 0.00 | 48 | 1017.1 |
| 20260502102218 | 21 | 187 | 9.7 | 16.1 | 0.00 | 0.00 | 0.00 | 48 | 1017.2 |
| 20260502101003 | 21 | 181 | 8.0 | 17.7 | 0.00 | 0.00 | 0.00 | 48 | 1017.3 |
| 20260502100218 | 21 | 177 | 9.7 | 16.1 | 0.00 | 0.00 | 0.00 | 49 | 1017.4 |
| 20260502091003 | 20 | 232 | 8.0 | 14.5 | 0.00 | 0.00 | 0.00 | 51 | 1017.5 |
| 20260502071219 | 17 | 189 | 8.0 | 12.9 | 0.00 | 0.00 | 0.00 | 53 | 1017.8 |
| 20260502070003 | 16 | 186 | 9.7 | 17.7 | 0.00 | 0.00 | 0.00 | 52 | 1018.0 |
| 20260502065003 | 16 | 180 | 9.7 | 17.7 | 0.00 | 0.00 | 0.00 | 51 | 1018.2 |
| 20260502064217 | 16 | 171 | 11.3 | 17.7 | 0.00 | 0.00 | 0.00 | 51 | 1018.1 |
| 20260502063003 | 15 | 164 | 11.3 | 17.7 | 0.00 | 0.00 | 0.00 | 54 | 1018.0 |
| 20260502062217 | 15 | 160 | 11.3 | 19.3 | 0.00 | 0.00 | 0.00 | 56 | 1018.0 |
| 20260502061003 | 14 | 158 | 8.0 | 14.5 | 0.00 | 0.00 | 0.00 | 59 | 1017.9 |
| 20260502060003 | 13 | 164 | 8.0 | 14.5 | 0.00 | 0.00 | 0.00 | 62 | 1017.8 |
| 20260502055003 | 13 | 163 | 4.8 | 9.7 | 0.00 | 0.00 | 0.00 | 62 | 1017.8 |
| 20260502054003 | 12 | 165 | 6.4 | 11.3 | 0.00 | 0.00 | 0.00 | 64 | 1017.8 |
| 20260502053003 | 11 | 165 | 6.4 | 8.0 | 0.00 | 0.00 | 0.00 | 66 | 1017.9 |
| 20260502052003 | 11 | 167 | 6.4 | 9.7 | 0.00 | 0.00 | 0.00 | 66 | 1017.9 |
| 20260502051218 | 10 | 168 | 6.4 | 9.7 | 0.00 | 0.00 | 0.00 | 67 | 1018.0 |
| 20260502050216 | 10 | 167 | 4.8 | 6.4 | 0.00 | 0.00 | 0.00 | 66 | 1018.0 |
| 20260502045003 | 9 | 167 | 4.8 | 8.0 | 0.00 | 0.00 | 0.00 | 66 | 1018.0 |
| 20260502044003 | 8 | 168 | 1.6 | 3.2 | 0.00 | 0.00 | 0.00 | 70 | 1017.9 |
| 20260502043003 | 8 | 168 | 1.6 | 3.2 | 0.00 | 0.00 | 0.00 | 70 | 1017.9 |
| 20260502042003 | 8 | 168 | 1.6 | 3.2 | 0.00 | 0.00 | 0.00 | 68 | 1017.8 |
| 20260502041003 | 8 | 168 | 3.2 | 6.4 | 0.00 | 0.00 | 0.00 | 68 | 1018.0 |
| 20260502040216 | 8 | 168 | 3.2 | 6.4 | 0.00 | 0.00 | 0.00 | 69 | 1018.0 |
| 20260502035218 | 8 | 168 | 3.2 | 6.4 | 0.00 | 0.00 | 0.00 | 69 | 1018.1 |
| 20260502034003 | 9 | 168 | 3.2 | 6.4 | 0.00 | 0.00 | 0.00 | 65 | 1018.3 |
| 20260502033003 | 9 | 168 | 3.2 | 6.4 | 0.00 | 0.00 | 0.00 | 66 | 1018.3 |
| 20260502032216 | 9 | 168 | 1.6 | 6.4 | 0.00 | 0.00 | 0.00 | 66 | 1018.5 |
| 20260502031003 | 10 | 169 | 3.2 | 8.0 | 0.00 | 0.00 | 0.00 | 66 | 1018.5 |
| 20260502030003 | 8 | 170 | 3.2 | 6.4 | 0.00 | 0.00 | 0.00 | 69 | 1018.6 |
| 20260502025003 | 9 | 170 | 3.2 | 6.4 | 0.00 | 0.00 | 0.00 | 68 | 1018.5 |
| 20260502024003 | 8 | 170 | 1.6 | 6.4 | 0.00 | 0.00 | 0.00 | 69 | 1018.5 |
| 20260502023003 | 8 | 170 | 1.6 | 3.2 | 0.00 | 0.00 | 0.00 | 69 | 1018.5 |
| 20260502022003 | 10 | 170 | 3.2 | 6.4 | 0.00 | 0.00 | 0.00 | 63 | 1018.7 |
| 20260502021217 | 9 | 171 | 1.6 | 6.4 | 0.00 | 0.00 | 0.00 | 66 | 1018.7 |
| 20260502020003 | 10 | 171 | 1.6 | 3.2 | 0.00 | 0.00 | 0.00 | 65 | 1018.8 |
| 20260502015003 | 9 | 171 | 1.6 | 3.2 | 0.00 | 0.00 | 0.00 | 65 | 1018.9 |
| 20260502014003 | 10 | 171 | 1.6 | 3.2 | 0.00 | 0.00 | 0.00 | 64 | 1019.0 |
| 20260502013003 | 10 | 171 | 1.6 | 6.4 | 0.00 | 0.00 | 0.00 | 65 | 1019.1 |
| 20260502012003 | 9 | 171 | 1.6 | 3.2 | 0.00 | 0.00 | 0.00 | 67 | 1019.1 |
| 20260502011003 | 9 | 171 | 1.6 | 3.2 | 0.00 | 0.00 | 0.00 | 68 | 1019.4 |
| 20260502010219 | 9 | 171 | 0.0 | 1.6 | 0.00 | 0.00 | 0.00 | 69 | 1019.4 |